LOB4222 KBGR-KACY

Flight info

Callsign LOB4222
Flight time 1h 16m
Altitude 36000
Route BEEKN Q439 BRIGS
Aircraft B738/M-SDE2E3FGHIRWXY/LB1

Departure

Time 2026-04-26 21:04
Airport Bangor International Airport (KBGR)

Arrival

Time 2026-04-26 22:20
Airport Atlantic City International Airport (KACY)
Time Latitude Longitude Altitude Speed Heading
2026-04-26 20:29 44.80680 -68.81606 174 ft 0 kts 12°
2026-04-26 20:52 44.80678 -68.81606 174 ft 2 kts 12°
2026-04-26 20:53 44.80653 -68.81612 174 ft 4 kts 359°
2026-04-26 20:53 44.80627 -68.81606 174 ft 4 kts 331°
2026-04-26 20:53 44.80617 -68.81597 173 ft 1 kts 306°
2026-04-26 20:58 44.80622 -68.81608 174 ft 4 kts 300°
2026-04-26 20:58 44.80623 -68.81676 174 ft 11 kts 254°
2026-04-26 20:59 44.80572 -68.81778 164 ft 9 kts 224°
2026-04-26 20:59 44.80505 -68.81843 159 ft 13 kts 181°
2026-04-26 20:59 44.80437 -68.81765 158 ft 13 kts 137°
2026-04-26 20:59 44.80375 -68.81677 158 ft 12 kts 134°
2026-04-26 21:00 44.80316 -68.81590 158 ft 12 kts 134°
2026-04-26 21:00 44.80257 -68.81507 158 ft 12 kts 134°
2026-04-26 21:00 44.80201 -68.81425 158 ft 12 kts 134°
2026-04-26 21:00 44.80145 -68.81346 159 ft 11 kts 134°
2026-04-26 21:01 44.80092 -68.81268 159 ft 11 kts 134°
2026-04-26 21:01 44.80040 -68.81192 161 ft 11 kts 134°
2026-04-26 21:01 44.79989 -68.81120 164 ft 10 kts 134°
2026-04-26 21:01 44.79940 -68.81049 167 ft 10 kts 134°
2026-04-26 21:02 44.79883 -68.81000 171 ft 10 kts 171°
2026-04-26 21:02 44.79821 -68.81028 174 ft 9 kts 216°
2026-04-26 21:02 44.79773 -68.81089 175 ft 9 kts 225°
2026-04-26 21:02 44.79731 -68.81156 176 ft 9 kts 232°
2026-04-26 21:03 44.79698 -68.81255 175 ft 15 kts 263°
2026-04-26 21:03 44.79814 -68.81469 167 ft 59 kts 315°
2026-04-26 21:03 44.80298 -68.82168 168 ft 140 kts 314°
2026-04-26 21:03 44.81142 -68.83388 334 ft 200 kts 310°
2026-04-26 21:04 44.82061 -68.84960 1196 ft 214 kts 315°
2026-04-26 21:04 44.83068 -68.86492 2411 ft 211 kts 315°
2026-04-26 21:04 44.84150 -68.87942 3271 ft 217 kts 317°
2026-04-26 21:04 44.85267 -68.89497 3745 ft 241 kts 307°
2026-04-26 21:05 44.85764 -68.91804 4276 ft 258 kts 265°
2026-04-26 21:05 44.85128 -68.94160 5079 ft 265 kts 231°
2026-04-26 21:05 44.83813 -68.96009 5924 ft 270 kts 223°
2026-04-26 21:05 44.82422 -68.97828 6747 ft 275 kts 220°
2026-04-26 21:06 44.80962 -68.99582 7583 ft 277 kts 219°
2026-04-26 21:06 44.79475 -69.01336 8428 ft 281 kts 219°
2026-04-26 21:06 44.77978 -69.03137 9251 ft 285 kts 220°
2026-04-26 21:06 44.76465 -69.04958 10079 ft 288 kts 218°
2026-04-26 21:07 44.74877 -69.06773 10569 ft 305 kts 218°
2026-04-26 21:07 44.73166 -69.08742 10757 ft 330 kts 218°
2026-04-26 21:07 44.71353 -69.10869 11145 ft 346 kts 219°
2026-04-26 21:07 44.69502 -69.13081 11832 ft 351 kts 220°
2026-04-26 21:08 44.67642 -69.15331 12638 ft 354 kts 220°
2026-04-26 21:08 44.65778 -69.17607 13418 ft 357 kts 220°
2026-04-26 21:08 44.63895 -69.19917 14139 ft 362 kts 220°
2026-04-26 21:08 44.61995 -69.22253 14815 ft 365 kts 220°
2026-04-26 21:09 44.60078 -69.24614 15517 ft 368 kts 220°
2026-04-26 21:09 44.58148 -69.26992 16198 ft 371 kts 220°
2026-04-26 21:09 44.56195 -69.29395 16866 ft 375 kts 220°
2026-04-26 21:09 44.54228 -69.31815 17535 ft 378 kts 220°
2026-04-26 21:10 44.52241 -69.34259 18198 ft 382 kts 220°
2026-04-26 21:10 44.50269 -69.36680 18788 ft 385 kts 220°
2026-04-26 21:10 44.48238 -69.39172 19344 ft 388 kts 220°
2026-04-26 21:10 44.46197 -69.41675 19904 ft 392 kts 220°
2026-04-26 21:11 44.44135 -69.44199 20452 ft 395 kts 220°
2026-04-26 21:11 44.42058 -69.46741 21018 ft 398 kts 220°
2026-04-26 21:11 44.39966 -69.49297 21580 ft 401 kts 220°
2026-04-26 21:11 44.37861 -69.51868 22121 ft 404 kts 220°
2026-04-26 21:12 44.35736 -69.54460 22652 ft 407 kts 220°
2026-04-26 21:12 44.33600 -69.57063 23190 ft 410 kts 220°
2026-04-26 21:12 44.31447 -69.59685 23698 ft 413 kts 220°
2026-04-26 21:12 44.29289 -69.62309 24366 ft 408 kts 220°
2026-04-26 21:13 44.27152 -69.64905 24870 ft 409 kts 220°
2026-04-26 21:13 44.24990 -69.67529 25180 ft 414 kts 220°
2026-04-26 21:13 44.22803 -69.70181 25540 ft 418 kts 220°
2026-04-26 21:13 44.20602 -69.72846 25964 ft 420 kts 220°
2026-04-26 21:14 44.18392 -69.75520 26375 ft 422 kts 220°
2026-04-26 21:14 44.16167 -69.78210 26759 ft 424 kts 220°
2026-04-26 21:14 44.13933 -69.80908 27152 ft 426 kts 220°
2026-04-26 21:14 44.11692 -69.83610 27585 ft 427 kts 220°
2026-04-26 21:15 44.09437 -69.86327 27960 ft 429 kts 220°
2026-04-26 21:15 44.07171 -69.89055 28265 ft 433 kts 220°
2026-04-26 21:15 44.04887 -69.91801 28621 ft 435 kts 220°
2026-04-26 21:15 44.02591 -69.94559 28950 ft 438 kts 220°
2026-04-26 21:16 44.00281 -69.97331 29300 ft 440 kts 220°
2026-04-26 21:16 43.97956 -70.00117 29598 ft 442 kts 220°
2026-04-26 21:16 43.95629 -70.02904 29939 ft 444 kts 220°
2026-04-26 21:16 43.93280 -70.05712 30220 ft 447 kts 220°
2026-04-26 21:17 43.90911 -70.08543 30462 ft 449 kts 220°
2026-04-26 21:17 43.88545 -70.11366 30701 ft 451 kts 220°
2026-04-26 21:17 43.86167 -70.14201 31001 ft 451 kts 220°
2026-04-26 21:17 43.83790 -70.17033 31370 ft 450 kts 220°
2026-04-26 21:18 43.81408 -70.19865 31567 ft 453 kts 221°
2026-04-26 21:18 43.79010 -70.22715 31747 ft 456 kts 221°
2026-04-26 21:18 43.76606 -70.25568 32095 ft 454 kts 221°
2026-04-26 21:18 43.74213 -70.28405 32490 ft 452 kts 221°
2026-04-26 21:19 43.71826 -70.31231 32824 ft 452 kts 221°
2026-04-26 21:19 43.69435 -70.34060 33076 ft 453 kts 221°
2026-04-26 21:19 43.67044 -70.36886 33344 ft 453 kts 221°
2026-04-26 21:19 43.64657 -70.39704 33679 ft 452 kts 221°
2026-04-26 21:20 43.62267 -70.42522 33994 ft 451 kts 221°
2026-04-26 21:20 43.59877 -70.45337 34259 ft 452 kts 221°
2026-04-26 21:20 43.57516 -70.48115 34493 ft 452 kts 221°
2026-04-26 21:20 43.55131 -70.50918 34766 ft 450 kts 221°
2026-04-26 21:21 43.52748 -70.53716 35061 ft 449 kts 221°
2026-04-26 21:21 43.50372 -70.56498 35314 ft 448 kts 221°
2026-04-26 21:21 43.47996 -70.59261 35615 ft 445 kts 222°
2026-04-26 21:21 43.45646 -70.62019 35921 ft 444 kts 221°
2026-04-26 21:22 43.43295 -70.64779 36114 ft 444 kts 222°
2026-04-26 21:22 43.40942 -70.67537 36302 ft 445 kts 221°
2026-04-26 21:22 43.38588 -70.70286 36529 ft 444 kts 221°
2026-04-26 21:23 43.33785 -70.75601 36972 ft 444 kts 213°
2026-04-26 21:23 43.31119 -70.77719 37215 ft 443 kts 210°
2026-04-26 21:23 43.28416 -70.79760 37412 ft 443 kts 210°
2026-04-26 21:23 43.25707 -70.81790 37576 ft 443 kts 210°
2026-04-26 21:24 43.23003 -70.83827 37750 ft 443 kts 210°
2026-04-26 21:24 43.20312 -70.85871 37961 ft 443 kts 211°
2026-04-26 21:24 43.17621 -70.87927 38158 ft 442 kts 211°
2026-04-26 21:24 43.14929 -70.90002 38171 ft 445 kts 212°
2026-04-26 21:25 43.09535 -70.94215 38181 ft 447 kts 210°
2026-04-26 21:25 43.04105 -70.98300 38183 ft 444 kts 210°
2026-04-26 21:26 42.98713 -71.02399 38189 ft 443 kts 211°
2026-04-26 21:26 42.93345 -71.06494 38183 ft 441 kts 211°
2026-04-26 21:27 42.87913 -71.10378 38199 ft 441 kts 207°
2026-04-26 21:27 42.82370 -71.13936 38196 ft 440 kts 207°
2026-04-26 21:28 42.76827 -71.17471 38204 ft 439 kts 207°
2026-04-26 21:28 42.71297 -71.21027 38204 ft 439 kts 208°
2026-04-26 21:29 42.65774 -71.24596 38195 ft 440 kts 208°
2026-04-26 21:29 42.60258 -71.28164 38190 ft 440 kts 208°
2026-04-26 21:30 42.55666 -71.31123 38182 ft 440 kts 208°
2026-04-26 21:30 42.50122 -71.34679 38185 ft 440 kts 208°
2026-04-26 21:31 42.44592 -71.38227 38193 ft 440 kts 208°
2026-04-26 21:31 42.38148 -71.42356 38184 ft 440 kts 208°
2026-04-26 21:32 42.33508 -71.45323 38191 ft 440 kts 208°
2026-04-26 21:32 42.27978 -71.48854 38198 ft 439 kts 208°
2026-04-26 21:33 42.22505 -71.52344 38186 ft 438 kts 208°
2026-04-26 21:33 42.17014 -71.55985 38199 ft 436 kts 210°
2026-04-26 21:34 42.11636 -71.59741 38178 ft 434 kts 212°
2026-04-26 21:34 42.06227 -71.63221 38194 ft 434 kts 208°
2026-04-26 21:35 42.00804 -71.66765 38195 ft 433 kts 210°
2026-04-26 21:35 41.95419 -71.70382 38191 ft 433 kts 210°
2026-04-26 21:36 41.90026 -71.73971 38192 ft 433 kts 210°
2026-04-26 21:36 41.84627 -71.77541 38185 ft 433 kts 209°
2026-04-26 21:37 41.79226 -71.81125 38191 ft 433 kts 210°
2026-04-26 21:37 41.73905 -71.84893 38176 ft 433 kts 211°
2026-04-26 21:38 41.68604 -71.88709 38182 ft 433 kts 211°
2026-04-26 21:38 41.63291 -71.92503 38165 ft 434 kts 212°
2026-04-26 21:39 41.57940 -71.96269 38149 ft 435 kts 211°
2026-04-26 21:39 41.52596 -72.00040 38162 ft 435 kts 212°
2026-04-26 21:40 41.47247 -72.03842 38191 ft 436 kts 212°
2026-04-26 21:40 41.41876 -72.07635 38189 ft 438 kts 211°
2026-04-26 21:41 41.36475 -72.11432 38184 ft 439 kts 211°
2026-04-26 21:41 41.31105 -72.15202 38187 ft 440 kts 211°
2026-04-26 21:42 41.25682 -72.19001 38181 ft 441 kts 211°
2026-04-26 21:42 41.20256 -72.22784 38177 ft 440 kts 212°
2026-04-26 21:43 41.14846 -72.26548 38176 ft 439 kts 212°
2026-04-26 21:43 41.09436 -72.30309 38189 ft 439 kts 212°
2026-04-26 21:44 41.04029 -72.34058 38197 ft 438 kts 212°
2026-04-26 21:44 40.98628 -72.37799 38192 ft 438 kts 212°
2026-04-26 21:45 40.93221 -72.41537 38195 ft 438 kts 212°
2026-04-26 21:45 40.87825 -72.45261 38203 ft 438 kts 212°
2026-04-26 21:46 40.85105 -72.47136 37984 ft 443 kts 212°
2026-04-26 21:46 40.82381 -72.49027 37553 ft 442 kts 213°
2026-04-26 21:46 40.79693 -72.50976 37027 ft 438 kts 212°
2026-04-26 21:46 40.77023 -72.52773 36651 ft 426 kts 211°
2026-04-26 21:47 40.74379 -72.54420 36305 ft 413 kts 211°
2026-04-26 21:47 40.71863 -72.56112 35931 ft 400 kts 213°
2026-04-26 21:47 40.69502 -72.57922 35566 ft 385 kts 220°
2026-04-26 21:47 40.67470 -72.60082 35352 ft 365 kts 229°
2026-04-26 21:48 40.65701 -72.62438 34988 ft 360 kts 232°
2026-04-26 21:48 40.63958 -72.64810 34707 ft 364 kts 230°
2026-04-26 21:48 40.62200 -72.67270 34342 ft 374 kts 229°
2026-04-26 21:48 40.60270 -72.69630 33961 ft 381 kts 226°
2026-04-26 21:49 40.58369 -72.71987 33510 ft 370 kts 229°
2026-04-26 21:49 40.56610 -72.74322 33164 ft 359 kts 230°
2026-04-26 21:49 40.54876 -72.76633 32791 ft 351 kts 230°
2026-04-26 21:49 40.53159 -72.78895 32460 ft 351 kts 230°
2026-04-26 21:50 40.51403 -72.81172 32126 ft 360 kts 229°
2026-04-26 21:50 40.50155 -72.82710 31903 ft 368 kts 228°
2026-04-26 21:50 40.47595 -72.85780 31383 ft 381 kts 227°
2026-04-26 21:50 40.45652 -72.88087 30998 ft 372 kts 227°
2026-04-26 21:51 40.43755 -72.90341 30640 ft 363 kts 228°
2026-04-26 21:51 40.41907 -72.92548 30291 ft 355 kts 228°
2026-04-26 21:51 40.40097 -72.94722 29911 ft 353 kts 229°
2026-04-26 21:51 40.38273 -72.96922 29539 ft 361 kts 229°
2026-04-26 21:52 40.36373 -72.99175 29180 ft 375 kts 229°
2026-04-26 21:52 40.34464 -73.01521 28774 ft 375 kts 228°
2026-04-26 21:52 40.32579 -73.03800 28403 ft 366 kts 226°
2026-04-26 21:52 40.30687 -73.05958 28043 ft 355 kts 230°
2026-04-26 21:53 40.28905 -73.08145 27708 ft 346 kts 229°
2026-04-26 21:53 40.27158 -73.10289 27381 ft 344 kts 229°
2026-04-26 21:53 40.25388 -73.12448 27061 ft 354 kts 229°
2026-04-26 21:53 40.23550 -73.14673 26717 ft 365 kts 229°
2026-04-26 21:54 40.21688 -73.16902 26333 ft 359 kts 229°
2026-04-26 21:54 40.19863 -73.19076 25976 ft 351 kts 229°
2026-04-26 21:54 40.18075 -73.21209 25616 ft 345 kts 229°
2026-04-26 21:54 40.16321 -73.23306 25300 ft 339 kts 229°
2026-04-26 21:55 40.14588 -73.25379 24980 ft 337 kts 229°
2026-04-26 21:55 40.12837 -73.27477 24679 ft 348 kts 229°
2026-04-26 21:55 40.11028 -73.29642 24334 ft 353 kts 229°
2026-04-26 21:55 40.09231 -73.31767 23989 ft 345 kts 229°
2026-04-26 21:56 40.07463 -73.33848 23652 ft 340 kts 229°
2026-04-26 21:56 40.05720 -73.35902 23276 ft 335 kts 229°
2026-04-26 21:56 40.04006 -73.37923 22943 ft 330 kts 229°
2026-04-26 21:56 40.02300 -73.39938 22624 ft 335 kts 229°
2026-04-26 21:57 40.00541 -73.42026 22303 ft 347 kts 229°
2026-04-26 21:57 39.98758 -73.44131 21935 ft 344 kts 229°
2026-04-26 21:57 39.96990 -73.46208 21583 ft 338 kts 229°
2026-04-26 21:57 39.95286 -73.48211 21253 ft 332 kts 229°
2026-04-26 21:58 39.93577 -73.50221 20920 ft 328 kts 228°
2026-04-26 21:58 39.91899 -73.52193 20630 ft 323 kts 228°
2026-04-26 21:58 39.90248 -73.54151 20311 ft 320 kts 231°
2026-04-26 21:58 39.88745 -73.56315 20027 ft 327 kts 237°
2026-04-26 21:59 39.87315 -73.58644 19712 ft 333 kts 237°
2026-04-26 21:59 39.85884 -73.60994 19360 ft 327 kts 237°
2026-04-26 21:59 39.84468 -73.63278 19035 ft 323 kts 237°
2026-04-26 21:59 39.83055 -73.65529 18712 ft 320 kts 236°
2026-04-26 22:00 39.81664 -73.67766 18381 ft 316 kts 237°
2026-04-26 22:00 39.80271 -73.69985 18018 ft 315 kts 236°
2026-04-26 22:00 39.78872 -73.72177 17578 ft 316 kts 236°
2026-04-26 22:00 39.77475 -73.74377 17244 ft 313 kts 236°
2026-04-26 22:01 39.76101 -73.76548 16923 ft 310 kts 236°
2026-04-26 22:01 39.74733 -73.78712 16591 ft 308 kts 236°
2026-04-26 22:01 39.73377 -73.80855 16297 ft 306 kts 236°
2026-04-26 22:01 39.72029 -73.82987 16000 ft 304 kts 236°
2026-04-26 22:02 39.70689 -73.85105 15699 ft 303 kts 236°
2026-04-26 22:02 39.69805 -73.86503 15509 ft 302 kts 236°
2026-04-26 22:02 39.68030 -73.89305 15115 ft 301 kts 236°
2026-04-26 22:02 39.66701 -73.91402 14828 ft 300 kts 236°
2026-04-26 22:03 39.65377 -73.93491 14535 ft 299 kts 236°
2026-04-26 22:03 39.64053 -73.95578 14244 ft 299 kts 236°
2026-04-26 22:03 39.62731 -73.97657 13943 ft 299 kts 236°
2026-04-26 22:03 39.61410 -73.99735 13610 ft 299 kts 236°
2026-04-26 22:04 39.60083 -74.01823 13295 ft 304 kts 236°
2026-04-26 22:04 39.58729 -74.03958 13064 ft 311 kts 236°
2026-04-26 22:04 39.57343 -74.06139 12810 ft 313 kts 235°
2026-04-26 22:04 39.55962 -74.08308 12549 ft 310 kts 235°
2026-04-26 22:05 39.54593 -74.10455 12289 ft 308 kts 235°
2026-04-26 22:05 39.53245 -74.12566 12041 ft 301 kts 235°
2026-04-26 22:05 39.51878 -74.14624 11680 ft 304 kts 230°
2026-04-26 22:05 39.50303 -74.16526 11226 ft 311 kts 225°
2026-04-26 22:06 39.48652 -74.18351 10863 ft 313 kts 224°
2026-04-26 22:06 39.46996 -74.20159 10551 ft 312 kts 224°
2026-04-26 22:06 39.45336 -74.21982 10243 ft 311 kts 224°
2026-04-26 22:06 39.43706 -74.23786 10106 ft 305 kts 224°
2026-04-26 22:07 39.42113 -74.25562 9876 ft 302 kts 224°
2026-04-26 22:07 39.40522 -74.27346 9558 ft 302 kts 224°
2026-04-26 22:07 39.38938 -74.29128 9252 ft 302 kts 224°
2026-04-26 22:07 39.37887 -74.30311 9052 ft 303 kts 224°
2026-04-26 22:08 39.35801 -74.32661 8632 ft 296 kts 224°
2026-04-26 22:08 39.34250 -74.34407 8327 ft 287 kts 224°
2026-04-26 22:08 39.32783 -74.36058 8031 ft 280 kts 223°
2026-04-26 22:08 39.31338 -74.37685 7771 ft 271 kts 223°
2026-04-26 22:09 39.29951 -74.39244 7534 ft 258 kts 223°
2026-04-26 22:09 39.28628 -74.40732 7263 ft 247 kts 223°
2026-04-26 22:09 39.27361 -74.42156 7019 ft 236 kts 222°
2026-04-26 22:09 39.26147 -74.43522 6812 ft 230 kts 222°
2026-04-26 22:10 39.24946 -74.44871 6611 ft 228 kts 221°
2026-04-26 22:10 39.23752 -74.46212 6398 ft 227 kts 221°
2026-04-26 22:10 39.22561 -74.47548 6170 ft 227 kts 221°
2026-04-26 22:10 39.21372 -74.48880 5952 ft 226 kts 221°
2026-04-26 22:11 39.20187 -74.50208 5742 ft 226 kts 221°
2026-04-26 22:11 39.19067 -74.51612 5507 ft 224 kts 238°
2026-04-26 22:11 39.18663 -74.53440 5313 ft 205 kts 281°
2026-04-26 22:11 39.18989 -74.55142 5177 ft 192 kts 300°
2026-04-26 22:12 39.19585 -74.56659 5014 ft 189 kts 305°
2026-04-26 22:12 39.20214 -74.58137 4807 ft 188 kts 306°
2026-04-26 22:12 39.20842 -74.59612 4624 ft 187 kts 305°
2026-04-26 22:12 39.21464 -74.61084 4439 ft 186 kts 306°
2026-04-26 22:13 39.22079 -74.62548 4249 ft 186 kts 305°
2026-04-26 22:13 39.22689 -74.64016 4071 ft 184 kts 304°
2026-04-26 22:13 39.23281 -74.65477 3876 ft 184 kts 305°
2026-04-26 22:13 39.23874 -74.66920 3772 ft 179 kts 306°
2026-04-26 22:14 39.24462 -74.68339 3697 ft 180 kts 306°
2026-04-26 22:14 39.25072 -74.69770 3623 ft 183 kts 310°
2026-04-26 22:14 39.25974 -74.70750 3522 ft 159 kts 355°
2026-04-26 22:14 39.26956 -74.70501 3508 ft 142 kts 28°
2026-04-26 22:15 39.27901 -74.70074 3431 ft 145 kts 22°
2026-04-26 22:15 39.28816 -74.69572 3368 ft 143 kts 30°
2026-04-26 22:15 39.29703 -74.68970 3242 ft 147 kts 31°
2026-04-26 22:15 39.30613 -74.68346 3071 ft 147 kts 30°
2026-04-26 22:16 39.31514 -74.67729 2909 ft 145 kts 30°
2026-04-26 22:16 39.32378 -74.67139 2785 ft 135 kts 30°
2026-04-26 22:16 39.33191 -74.66582 2674 ft 133 kts 30°
2026-04-26 22:16 39.34009 -74.66022 2519 ft 132 kts 28°
2026-04-26 22:17 39.34813 -74.65472 2321 ft 133 kts 29°
2026-04-26 22:17 39.35635 -74.64909 2139 ft 134 kts 29°
2026-04-26 22:17 39.36477 -74.64335 1954 ft 137 kts 28°
2026-04-26 22:17 39.37311 -74.63741 1778 ft 137 kts 27°
2026-04-26 22:18 39.38170 -74.63209 1611 ft 136 kts 28°
2026-04-26 22:18 39.38993 -74.62624 1440 ft 134 kts 29°
2026-04-26 22:18 39.39825 -74.62046 1262 ft 137 kts 28°
2026-04-26 22:18 39.40654 -74.61476 1068 ft 134 kts 29°
2026-04-26 22:19 39.41485 -74.60899 889 ft 137 kts 28°
2026-04-26 22:19 39.42323 -74.60326 695 ft 134 kts 29°
2026-04-26 22:19 39.43144 -74.59773 532 ft 133 kts 28°
2026-04-26 22:19 39.43990 -74.59189 310 ft 141 kts 28°
2026-04-26 22:20 39.44859 -74.58597 143 ft 141 kts 30°
2026-04-26 22:20 39.45427 -74.58212 76 ft 136 kts 29°
2026-04-26 22:20 39.46123 -74.57729 70 ft 26 kts 28°
2026-04-26 22:20 39.46231 -74.57655 76 ft 26 kts 28°
2026-04-26 22:21 39.46367 -74.57563 69 ft 18 kts 27°
2026-04-26 22:21 39.46435 -74.57466 78 ft 15 kts 98°
2026-04-26 22:21 39.46392 -74.57366 76 ft 11 kts 155°
2026-04-26 22:21 39.46321 -74.57392 76 ft 11 kts 208°
2026-04-26 22:22 39.46259 -74.57440 69 ft 10 kts 203°
2026-04-26 22:22 39.46199 -74.57476 75 ft 9 kts 207°
2026-04-26 22:22 39.46142 -74.57515 74 ft 9 kts 210°
2026-04-26 22:22 39.46087 -74.57554 73 ft 9 kts 207°
2026-04-26 22:23 39.46033 -74.57591 74 ft 9 kts 207°
2026-04-26 22:23 39.45980 -74.57626 73 ft 8 kts 208°
2026-04-26 22:23 39.45929 -74.57661 67 ft 8 kts 208°
2026-04-26 22:23 39.45880 -74.57695 66 ft 8 kts 208°
2026-04-26 22:24 39.45832 -74.57728 74 ft 8 kts 208°
2026-04-26 22:24 39.45785 -74.57760 76 ft 7 kts 208°
2026-04-26 22:24 39.45738 -74.57778 74 ft 7 kts 166°
2026-04-26 22:24 39.45707 -74.57731 71 ft 7 kts 119°
2026-04-26 22:25 39.45686 -74.57679 76 ft 6 kts 117°
2026-04-26 22:25 39.45665 -74.57629 70 ft 6 kts 117°
2026-04-26 22:25 39.45644 -74.57577 75 ft 7 kts 119°
2026-04-26 22:25 39.45622 -74.57524 76 ft 7 kts 118°
2026-04-26 22:26 39.45599 -74.57468 72 ft 7 kts 117°
2026-04-26 22:26 39.45575 -74.57410 72 ft 7 kts 118°
2026-04-26 22:26 39.45551 -74.57352 73 ft 7 kts 118°
2026-04-26 22:26 39.45527 -74.57296 77 ft 7 kts 119°
2026-04-26 22:27 39.45503 -74.57237 72 ft 8 kts 117°
2026-04-26 22:27 39.45478 -74.57175 71 ft 8 kts 117°
2026-04-26 22:27 39.45451 -74.57112 74 ft 8 kts 123°
2026-04-26 22:27 39.45403 -74.57087 69 ft 8 kts 183°
2026-04-26 22:28 39.45351 -74.57068 73 ft 8 kts 148°
2026-04-26 22:28 39.45297 -74.57041 72 ft 8 kts 171°
2026-04-26 22:28 39.45244 -74.57049 73 ft 6 kts 222°
2026-04-26 22:28 39.45236 -74.57065 72 ft 2 kts 240°
2026-04-26 22:29 39.45230 -74.57085 72 ft 3 kts 249°
2026-04-26 22:29 39.45228 -74.57092 73 ft 0 kts 251°
2026-04-26 22:29 39.45227 -74.57096 74 ft 1 kts 251°
2026-04-26 22:29 39.45226 -74.57096 74 ft 0 kts 251°